Probability
0 0 0 0 0 0 0 0 0 0 0 0 0 0 0 0 0 0 0 0 0 0 0 0 0 0 0 0 0 0 0 0 0 0 0 0 0 0 0 0 0 0 0
0 0 0 0 0 0 0 0 0 0 0 0 0 0 0 0 0 0 0 0 0 0 0 0 0 0 0 0 0 0 0 0 0 0 0 0 0 0 0 0 0 0 0
0 0 0 0 0 0 0 0 0 0 0 0 0 0 0 0 0 0 0 0 0 0 0 0 0 0 0 0 0 0 0 0 0 0 0 0 0 0 0 0 0 0 0
0 0 0 0 0 0 0 0 0 0 0 0 0 0 0 0 0 0 0 0 0 0 0 0 0 0 0 0 0 0 0 0 0 0 0 0 0 0 0 0 0 0 0
0 0 0 0 0 0 0 0 0 0 0 0 0 0 0 0 0 0 0 0 0 0 0 0 0 0 0 0 0 0 0 0 0 0 0 0 0 0 0 0 0 0 0
0 0 0 0 0 0 0 0 0 0 0 0 0 0 0 0 0 0 0 0 0 0 0 0 0 0 0 0 0 0 0 0 0 0 0 0 0 0 0 0 0 0 0
0 0 0 0 0 0 0 0 0 0 0 0 0 0 0 0 0 0 0 0 0 0 0 0 0 0 0 0 0 0 0 0 0 0 0 0 0 0 0 0 0 0 0
0 0 0 0 0 0 0 0 0 0 0 0 0 0 0 0 0 0 0 0 0 0 0 0 0 0 0 0 0 0 0 0 0 0 0 0 0 0 0 0 0 0 0
0 0 0 0 0 0 0 0 0 0 0 0 0 0 0 0 0 0 0 0 0 0 0 0 0 0 0 0 0 0 0 0 0 0 0 0 0 0 0 0 0 0 0
0 0 0 0 0 0 0 0 0 0 0 0 0 0 0 0 0 0 0 0 0 0 0 0 0 0 0 0 0 0 0 0 0 0 0 0 0 0 0 0 0 0 0
0 0 0 0 0 0 0 0 0 0 0 0 0 0 0 0 0 0 0 0 0 0 0 0 0 0 0 0 0 0 0 0 0 0 0 0 0 0 0 0 0 0 0
0 0 0 0 0 0 0 0 0 0 0 0 0 0 0 0 0 0 0 0 0 0 0 0 0 0 0 0 0 0 0 0 0 0 0 0 0 0 0 0 0 0 0
0 0 0 0 0 0 0 0 0 0 0 0 0 0 0 0 0 0 0 0 0 0 0 0 0 0 0 0 0 0 0 0 0 0 0 0 0 0 0 0 0 0 0
0 0 0 0 0 0 0 0 0 0 0 0 0 0 0 0 0 0 0 0 0 0 0 0 0 0 0 0 0 0 0 0 0 0 0 0 0 0 0 0 0 0 0
0 0 0 0 0 0 0 0 0 0 0 0 0 0 0 0 0 0 0 0 0 0 0 0 0 0 0 0 0 0 0 0 0 0 0 0 0 0 0 0 0 0 0
0 0 0 0 0 0 0 0 0 0 0 0 0 0 0 0 0 0 0 0 0 0 0 0 0 0 0 0 0 0 0 0 0 0 0 0 0 0 0 0 0 0 0
0 0 0 0 0 0 0 0 0 0 0 0 0 0 0 0 0 0 0 0 0 0 0 0 0 0 0 0 0 0 0 0 0 0 0 0 0 0 0 0 0 0 0
0 0 0 0 0 0 0 0 0 0 0 0 0 0 0 0 0 0 0 0 0 0 0 0 0 0 0 0 0 0 0 0 0 0 0 0 0 0 0 0 0 0 0
0 0 0 0 0 0 0 0 0 0 0 0 0 0 0 0 0 0 0 0 0 0 0 0 0 0 0 0 0 0 0 0 0 0 0 0 0 0 0 0 0 0 0
0 0 0 0 0 0 0 0 0 0 0 0 0 0 0 0 0 0 0 0 0 0 0 0 0 0 0 0 0 0 0 0 0 0 0 0 0 0 0 0 0 0 0
0 0 0 0 0 0 0 0 0 0 0 0 0 0 0 0 0 0 0 0 0 0 0 0 0 0 0 0 0 0 0 0 0 0 0 0 0 0 0 0 0 0 0
0 0 0 0 0 0 0 0 0 0 0 0 0 0 0 0 0 0 0 0 0 0 0 0 0 0 0 0 0 0 0 0 0 0 0 0 0 0 0 0 0 0 0
0 0 0 0 0 0 0 0 0 0 0 0 0 0 0 0 0 0 0 0 0 0 0 0 0 0 0 0 0 0 0 0 0 0 0 0 0 0 0 0 0 0 0
0 0 0 0 0 0 0 0 0 0 0 0 0 0 0 0 0 0 0 0 0 0 0 0 0 0 0 0 0 0 0 0 0 0 0 0 0 0 0 0 0 0 0
0 0 0 0 0 0 0 0 0 0 0 0 0 0 0 0 0 0 0 0 0 0 0 0 0 0 0 0 0 0 0 0 0 0 0 0 0 0 0 0 0 0 0
0 0 0 0 0 0 0 0 0 0 0 0 0 0 0 0 0 0 0 0 0 0 0 0 0 0 0 0 0 0 0 0 0 0 0 0 0 0 0 0 0 0 0
Height
5814 5813 5812 5811 5809 5808 5806 5805 5804 5802 5801 5800 5799 5797 5796 5794 5793 5791 5789 5786 5782 5779 5775 5773 5770 5767 5764 5760 5755 5751 5747 5743 5738 5735 5731 5728 5723 5719 5714 5709 5704 5700 5696
5809 5807 5805 5804 5802 5800 5798 5797 5796 5795 5793 5791 5790 5789 5787 5786 5784 5782 5779 5775 5772 5768 5765 5761 5758 5754 5750 5747 5742 5737 5733 5729 5724 5720 5715 5712 5709 5705 5700 5695 5690 5685 5681
5804 5801 5799 5797 5795 5793 5791 5789 5787 5786 5785 5782 5781 5779 5777 5776 5774 5771 5767 5764 5760 5757 5753 5749 5744 5740 5736 5733 5728 5723 5719 5714 5710 5705 5700 5695 5691 5688 5686 5682 5677 5671 5666
5798 5795 5792 5790 5788 5785 5783 5780 5778 5776 5775 5772 5771 5768 5767 5765 5763 5759 5755 5752 5748 5744 5740 5736 5731 5726 5722 5718 5713 5709 5704 5699 5694 5690 5686 5680 5675 5670 5666 5664 5660 5655 5651
5792 5788 5785 5783 5780 5777 5775 5772 5769 5767 5764 5762 5760 5757 5755 5752 5749 5745 5742 5739 5735 5730 5726 5722 5717 5712 5707 5703 5698 5693 5689 5684 5679 5674 5669 5665 5659 5655 5650 5646 5642 5637 5633
5785 5781 5778 5775 5772 5769 5766 5763 5760 5757 5754 5751 5748 5745 5742 5738 5735 5731 5728 5724 5720 5717 5712 5707 5702 5697 5692 5687 5683 5678 5673 5669 5664 5658 5653 5649 5644 5640 5634 5629 5625 5621 5617
5777 5773 5770 5767 5764 5760 5757 5754 5750 5747 5744 5740 5736 5733 5729 5725 5721 5717 5713 5709 5705 5701 5697 5692 5687 5682 5677 5672 5667 5662 5658 5653 5648 5643 5638 5633 5628 5623 5618 5613 5608 5604 5600
5769 5765 5761 5758 5754 5751 5747 5743 5739 5735 5731 5727 5723 5719 5715 5711 5707 5702 5698 5693 5689 5685 5680 5676 5672 5667 5662 5657 5651 5646 5642 5637 5632 5627 5621 5616 5611 5606 5601 5596 5590 5586 5583
5759 5755 5751 5748 5744 5740 5736 5732 5728 5723 5719 5714 5710 5706 5701 5697 5692 5688 5683 5678 5673 5668 5663 5659 5655 5651 5646 5641 5635 5630 5626 5620 5615 5610 5604 5599 5594 5588 5583 5578 5573 5569 5565
5749 5745 5741 5737 5733 5729 5725 5720 5716 5711 5707 5702 5697 5692 5687 5682 5677 5673 5668 5663 5657 5652 5647 5642 5637 5633 5629 5624 5618 5613 5609 5603 5598 5592 5587 5582 5577 5571 5566 5561 5556 5551 5547
5741 5737 5732 5728 5723 5719 5714 5710 5705 5700 5695 5690 5684 5679 5674 5668 5663 5657 5652 5647 5642 5636 5631 5626 5621 5616 5611 5606 5601 5596 5591 5585 5580 5574 5569 5564 5559 5554 5549 5544 5539 5534 5529
5733 5728 5724 5719 5714 5709 5704 5699 5694 5689 5683 5677 5672 5666 5660 5654 5648 5643 5637 5631 5626 5620 5615 5609 5604 5599 5594 5588 5583 5578 5572 5567 5562 5556 5551 5547 5541 5537 5532 5527 5522 5517 5511
5724 5720 5715 5710 5705 5700 5695 5689 5683 5678 5672 5665 5659 5653 5646 5640 5634 5628 5621 5615 5610 5604 5598 5592 5587 5582 5576 5571 5565 5560 5554 5549 5544 5538 5533 5529 5524 5520 5515 5509 5504 5499 5493
5716 5711 5707 5702 5696 5690 5685 5679 5672 5666 5659 5652 5646 5639 5632 5625 5619 5612 5606 5599 5593 5587 5582 5576 5571 5565 5559 5553 5547 5542 5537 5532 5527 5521 5517 5512 5507 5502 5497 5492 5487 5481 5476
5707 5702 5697 5691 5686 5680 5673 5667 5660 5653 5646 5639 5632 5624 5617 5610 5603 5596 5590 5583 5577 5571 5565 5559 5554 5548 5542 5536 5530 5524 5520 5515 5510 5505 5500 5495 5490 5485 5480 5474 5469 5463 5458
5698 5692 5686 5680 5674 5667 5660 5653 5646 5639 5631 5624 5616 5609 5602 5594 5587 5580 5573 5566 5560 5554 5548 5542 5536 5530 5524 5518 5513 5508 5504 5499 5494 5489 5484 5478 5473 5468 5462 5457 5451 5445 5440
5686 5680 5674 5667 5660 5653 5645 5638 5631 5623 5615 5608 5600 5592 5585 5578 5570 5563 5556 5549 5543 5536 5530 5524 5519 5514 5508 5501 5496 5491 5488 5484 5478 5472 5467 5462 5457 5451 5445 5439 5433 5428 5422
5673 5666 5659 5652 5645 5637 5629 5622 5614 5606 5598 5590 5582 5573 5566 5559 5552 5545 5538 5531 5525 5519 5513 5507 5502 5497 5491 5484 5479 5474 5471 5467 5462 5456 5450 5445 5440 5434 5428 5422 5417 5411 5404
5659 5651 5644 5636 5629 5620 5612 5604 5596 5588 5580 5571 5563 5555 5547 5540 5533 5526 5519 5513 5507 5501 5495 5490 5485 5480 5474 5468 5462 5457 5454 5450 5445 5440 5434 5429 5423 5417 5410 5406 5401 5395 5388
5644 5636 5628 5620 5611 5602 5594 5586 5578 5569 5561 5553 5545 5536 5528 5520 5514 5507 5501 5494 5489 5484 5478 5473 5467 5462 5457 5451 5446 5440 5437 5433 5428 5423 5418 5412 5406 5400 5393 5389 5385 5379 5373
5627 5618 5610 5602 5592 5583 5575 5567 5558 5550 5541 5534 5526 5517 5509 5501 5495 5489 5482 5476 5471 5466 5461 5456 5451 5445 5440 5435 5429 5424 5420 5415 5411 5406 5401 5395 5389 5383 5378 5373 5369 5364 5358
5609 5601 5592 5584 5574 5564 5555 5548 5540 5531 5523 5515 5507 5499 5491 5484 5477 5471 5465 5459 5453 5449 5444 5440 5435 5429 5424 5419 5413 5408 5403 5399 5394 5390 5384 5379 5373 5367 5362 5357 5353 5348 5343
5591 5582 5574 5566 5556 5545 5535 5527 5520 5512 5504 5497 5489 5481 5474 5467 5460 5454 5448 5443 5437 5433 5429 5424 5420 5415 5409 5404 5399 5393 5388 5383 5378 5374 5368 5363 5357 5352 5347 5343 5338 5333 5329
5573 5564 5555 5547 5538 5528 5518 5508 5501 5493 5486 5479 5472 5464 5458 5451 5445 5439 5433 5428 5423 5418 5414 5409 5405 5401 5395 5390 5385 5379 5373 5368 5362 5357 5352 5347 5342 5337 5333 5329 5324 5320 5316
5555 5545 5536 5528 5520 5511 5502 5492 5483 5476 5470 5463 5455 5448 5441 5435 5430 5425 5419 5414 5409 5404 5400 5396 5391 5387 5382 5376 5371 5365 5360 5354 5347 5341 5337 5332 5328 5324 5320 5316 5312 5307 5303
5536 5528 5519 5510 5501 5492 5485 5476 5467 5460 5453 5447 5441 5434 5427 5421 5416 5411 5407 5401 5396 5391 5386 5381 5377 5373 5368 5362 5357 5352 5346 5340 5333 5327 5322 5318 5314 5310 5307 5304 5300 5296 5292
Wind_Speed
26 27 27 28 30 31 33 34 35 37 39 40 40 41 42 44 44 45 45 47 48 51 52 52 53 54 55 56 57 59 60 60 61 61 61 61 61 61 60 60 59 59 59
26 26 27 27 28 30 32 34 35 37 39 41 42 43 44 45 46 46 48 50 52 54 55 56 56 57 58 59 60 62 63 63 64 64 64 62 61 60 60 59 59 60 60
26 26 26 27 28 30 31 33 35 36 38 41 43 44 46 47 48 49 51 53 55 55 56 58 59 60 61 61 62 64 65 65 65 64 63 63 62 61 59 58 58 59 59
26 27 28 28 28 30 31 33 35 37 39 41 43 45 47 48 49 51 53 54 56 57 58 59 61 62 63 64 65 65 65 65 65 64 63 62 62 61 61 59 59 59 59
28 29 29 30 30 31 32 34 36 38 40 41 44 46 47 49 51 53 54 56 57 58 59 60 62 63 65 66 66 66 65 64 64 64 62 61 62 61 62 61 60 61 60
31 32 32 32 32 33 34 35 37 39 41 42 44 46 48 50 52 54 55 57 58 58 59 61 63 64 65 66 67 66 65 65 64 64 63 63 63 62 62 62 62 62 61
33 33 33 33 34 35 36 38 39 41 43 44 46 48 49 51 53 55 56 58 59 59 60 62 64 65 66 66 66 66 66 65 65 65 65 65 64 64 64 64 63 63 62
34 34 35 37 38 39 40 41 42 44 45 46 47 49 51 53 54 56 57 59 60 61 62 64 64 65 65 66 67 67 67 67 67 67 66 66 66 66 65 64 64 63 62
36 36 38 39 40 41 42 43 44 45 46 48 49 51 53 54 56 57 59 61 62 63 64 64 64 65 65 66 67 67 67 68 68 67 68 68 67 67 65 65 65 64 63
36 37 38 38 39 40 41 42 44 45 47 49 51 53 55 56 58 59 60 61 62 63 64 65 65 65 66 67 68 69 69 70 69 70 70 69 69 67 65 66 65 65 64
34 35 36 37 39 40 41 43 44 46 48 49 51 53 55 57 59 60 61 62 63 64 65 66 67 67 68 68 69 70 71 71 71 71 71 69 68 66 65 65 65 65 65
34 36 37 38 40 41 42 43 45 46 48 49 51 52 54 56 57 59 60 61 62 64 65 66 67 68 68 69 69 70 70 70 70 70 69 67 65 63 64 64 65 65 66
37 38 39 40 42 43 44 45 46 48 49 50 51 52 54 55 56 57 58 60 61 62 63 65 65 66 67 67 67 68 68 68 67 66 64 63 62 62 63 64 64 65 66
40 41 42 44 45 47 48 49 49 50 51 52 53 54 56 56 57 58 59 60 60 61 61 62 63 64 65 65 65 65 65 64 63 62 61 61 61 61 62 63 63 64 65
43 45 46 48 49 51 52 53 54 55 56 56 57 58 58 59 59 59 59 59 60 60 61 62 62 63 63 63 63 62 62 61 61 60 59 60 60 60 62 62 62 64 64
47 49 51 53 54 55 57 58 58 59 60 60 60 61 61 61 61 61 60 60 61 61 61 61 61 61 60 60 60 60 60 60 59 58 58 58 59 59 61 62 63 64 64
52 54 56 58 59 61 62 62 62 63 63 64 64 64 64 64 63 63 62 62 62 62 61 60 60 59 59 60 60 60 59 58 58 58 58 57 58 59 60 61 62 62 61
58 60 62 63 64 65 66 66 66 66 66 66 66 66 66 65 65 64 64 63 62 61 60 60 59 59 59 59 59 60 59 58 57 57 57 57 57 58 58 59 60 60 59
63 65 66 67 68 69 69 69 69 69 69 69 68 67 67 66 65 65 64 63 61 60 59 58 58 57 57 58 59 59 59 57 56 56 56 56 57 57 58 58 58 57 57
67 68 70 71 71 71 72 71 70 70 70 69 68 67 67 66 65 64 63 62 60 59 58 57 57 57 56 57 57 57 56 56 55 55 55 55 55 56 56 56 55 54 55
71 73 73 74 74 74 74 72 71 70 70 69 67 66 66 65 64 62 61 59 58 57 56 55 54 54 53 53 54 54 54 53 54 54 53 53 54 54 54 53 52 52 52
75 75 76 76 75 75 74 73 71 70 69 67 66 64 63 62 61 59 58 57 55 54 52 51 50 50 50 50 51 51 51 51 51 52 52 53 53 52 51 50 50 50 50
77 78 78 77 75 74 73 72 70 68 67 65 63 62 60 59 58 56 54 52 51 49 48 47 47 47 48 48 48 48 49 50 51 51 51 51 50 49 48 47 47 47 48
79 79 78 77 74 72 71 69 68 66 64 62 61 60 58 56 54 52 51 49 48 46 45 45 44 45 45 46 46 47 48 49 50 50 50 48 47 46 45 44 44 45 45
78 77 76 75 72 71 69 67 66 64 62 60 58 56 54 52 49 48 47 46 44 44 43 43 43 43 44 45 45 46 47 48 49 49 47 45 43 42 41 41 41 42 42
76 75 73 71 69 68 66 64 63 61 59 56 54 52 49 47 45 44 43 43 42 42 42 43 43 43 44 44 44 45 46 46 47 45 43 41 40 39 38 38 38 38 38
Wind_Direction
298 294 290 287 284 282 280 278 275 274 274 274 274 275 276 277 280 282 284 285 285 287 290 292 292 293 294 294 295 295 296 296 296 297 297 296 296 296 295 295 294 292 291
304 300 297 292 289 285 283 281 279 277 277 277 276 277 278 279 281 282 282 283 284 287 289 291 292 292 293 293 294 294 295 295 296 297 296 296 295 294 293 294 293 292 291
306 304 300 296 292 289 286 284 283 281 280 280 279 279 279 279 280 281 281 283 285 287 288 289 290 291 291 292 293 293 294 295 296 296 296 296 295 293 292 292 292 291 290
307 305 302 298 295 292 289 286 284 283 281 281 281 280 280 281 281 281 282 283 285 286 287 288 289 290 290 291 292 293 294 295 296 296 296 296 295 295 294 293 292 291 291
308 306 302 299 296 293 290 288 286 284 283 282 282 282 282 281 281 281 282 283 283 284 286 287 288 289 289 290 291 292 293 295 296 296 296 296 296 296 295 294 294 292 292
309 305 302 299 297 294 292 290 288 286 285 284 283 283 282 282 282 282 283 283 283 284 285 286 287 288 289 290 291 292 293 294 295 296 296 296 297 297 296 294 293 292 292
306 303 300 298 297 295 294 292 290 288 287 286 285 284 283 283 283 283 284 284 284 285 285 285 286 287 288 289 290 291 293 294 295 295 296 296 296 297 296 295 293 292 292
305 302 300 299 298 297 295 293 292 290 288 287 286 285 284 284 284 284 285 285 285 285 285 285 286 286 287 288 289 290 292 293 294 295 295 296 296 296 295 295 293 292 292
308 305 303 301 300 298 296 294 292 290 289 287 287 286 285 285 285 285 285 285 285 285 286 286 286 286 287 287 289 290 291 293 294 294 295 295 296 295 294 294 293 292 293
310 307 305 302 300 298 296 294 293 291 289 287 286 286 285 285 284 284 284 285 285 285 285 285 286 286 287 287 288 289 291 292 293 293 294 294 294 294 293 293 292 292 293
309 308 306 305 303 301 299 298 296 295 294 292 291 289 288 287 287 286 285 285 284 284 284 285 285 286 287 288 289 290 291 291 292 292 292 292 292 292 292 292 292 292 292
313 313 312 311 310 308 307 305 304 302 300 299 297 295 294 292 291 290 288 288 287 286 286 286 286 287 288 289 289 290 290 291 291 291 291 291 291 290 291 291 291 292 292
316 316 315 314 313 312 311 310 309 307 306 304 301 300 298 297 296 294 293 291 290 289 288 288 288 288 289 289 290 290 290 290 291 291 291 290 290 291 291 291 292 292 292
316 315 314 314 313 312 311 311 310 309 308 307 305 303 302 300 299 298 297 295 293 292 291 290 290 290 290 290 290 290 290 290 291 291 291 291 291 291 291 291 292 292 293
314 314 314 313 313 312 311 310 310 309 308 307 306 305 304 302 301 300 299 297 295 293 292 292 291 291 291 290 289 290 291 291 291 291 291 291 291 292 292 292 292 293 293
313 313 313 312 312 311 310 309 309 308 307 306 305 304 303 302 301 301 299 298 296 294 293 293 292 292 291 290 290 290 291 292 292 292 292 292 292 292 293 293 294 294 294
312 312 312 311 311 310 310 309 308 307 306 306 305 303 302 302 301 300 299 298 296 295 293 292 292 292 291 290 290 290 290 291 292 293 293 293 293 293 294 294 294 295 295
311 311 311 311 310 310 309 308 307 307 306 305 305 304 303 302 301 300 299 298 297 296 294 292 292 291 291 290 291 291 291 292 293 293 293 293 294 294 294 294 295 295 295
311 311 310 310 309 309 308 307 307 306 306 305 304 303 303 302 301 300 299 298 296 295 294 293 292 292 291 291 292 292 292 292 293 293 294 294 293 293 293 294 295 295 295
309 309 309 309 308 308 307 307 307 306 305 305 304 303 303 302 301 301 299 297 296 295 294 293 293 293 293 293 293 293 293 293 293 294 294 294 294 293 293 294 295 295 295
308 308 308 308 308 307 307 307 306 306 305 305 304 303 303 302 302 301 299 297 296 296 295 295 295 295 294 294 294 294 295 295 295 295 295 295 294 294 294 294 295 295 295
308 307 307 308 308 307 307 306 306 305 305 304 304 303 302 301 301 301 300 298 297 297 296 296 296 296 296 296 296 296 296 296 297 296 296 296 295 295 295 294 294 294 295
307 307 307 307 307 307 307 306 306 305 305 304 303 302 301 301 301 301 301 300 299 299 298 298 298 297 298 298 298 297 298 298 298 298 298 297 296 295 294 294 293 294 295
306 306 307 307 307 307 306 306 305 305 305 304 303 302 302 301 301 301 301 302 301 300 299 300 300 300 300 300 300 300 300 300 300 300 300 298 296 295 294 293 293 294 295
306 306 307 307 307 306 306 306 305 305 305 305 305 304 303 303 302 301 301 302 302 302 302 302 302 302 302 302 302 302 302 302 302 301 300 299 297 295 293 292 293 294 295
306 306 307 307 307 307 307 306 306 307 307 307 307 307 306 304 303 303 303 302 303 303 304 305 305 305 304 304 304 304 304 305 305 303 301 298 296 294 293 293 293 294 295